Weather History for Gillette, WY

Change the Weather History Date:

Tuesday, March 26, 2013

  Actual Average Record
Temperature  
Mean Temperature 32 °F 37 °F  
Max Temperature 48 °F 50 °F 73 °F (1960)
Min Temperature 16 °F 24 °F -6 °F (1931)
Degree Days  
Heating Degree Days 33 28  
Month to date heating degree days 850 802  
Since 1 July heating degree days 5973 6210  
Cooling Degree Days 0 0  
Month to date cooling degree days 0 0  
Year to date cooling degree days 0 0  
Moisture  
Dew Point 13 °F    
Average Humidity 50    
Maximum Humidity 80    
Minimum Humidity 19    
Precipitation  
Precipitation 0.00 in 0.04 in 0.80 in (1950)
Month to date precipitation 0.28 0.77  
Year to date precipitation 1.41 1.55  
Sea Level Pressure  
Sea Level Pressure 30.04 in    
Wind  
Wind Speed 4 mph (South)    
Max Wind Speed 17 mph    
Max Gust Speed 22 mph    
Visibility 10 miles    
Events      
T = Trace of Precipitation, MM = Missing Value Source: NWS Daily Summary

Daily Weather History Graph

Daily Weather History Graph

Search for Another Location

Airport:

Trip Planner

Search our weather history database for the weather conditions in past years. The results will help you decide how hot, cold, wet, or windy it might be!

Date:

Astronomy

Mar. 26, 2013 Rise Set
Actual Time 6:53 AM MDT 7:22 PM MDT
Civil Twilight 6:24 AM MDT 7:51 PM MDT
Nautical Twilight 5:50 AM MDT 8:26 PM MDT
Astronomical Twilight 5:14 AM MDT 9:01 PM MDT
Moon 7:02 PM MDT (3/26) 6:12 AM MDT (3/26)
Length of Visible Light 13h 26m
Length of Day
12h 28m
Waxing Gibbous, 99% of the Moon is Illuminated
Mar 26
Waxing Gibbous
Mar 27
Full
Apr 2
Last Quarter
Apr 10
New
Apr 18
First Quarter

Hourly Weather History & Observations

Time (MDT) Temp. Windchill Dew Point Humidity Pressure Visibility Wind Dir Wind Speed Gust Speed Precip Events Conditions
12:53 AM 24.8 °F 13.4 °F 15.8 °F 69% 30.00 in 10.0 mi South 12.7 mph - N/A   Clear
1:53 AM 25.0 °F 13.6 °F 12.9 °F 60% 30.09 in 10.0 mi SSE 12.7 mph - N/A   Clear
2:53 AM 25.0 °F 19.3 °F 12.9 °F 60% 30.06 in 10.0 mi Variable 4.6 mph - N/A   Clear
3:53 AM 21.0 °F 12.4 °F 12.9 °F 71% 30.05 in 10.0 mi SSE 6.9 mph - N/A   Clear
4:53 AM 21.0 °F - 12.9 °F 71% 30.04 in 10.0 mi Calm Calm - N/A   Clear
5:53 AM 17.1 °F - 12.0 °F 81% 30.06 in 10.0 mi Calm Calm - N/A   Clear
6:53 AM 18.0 °F - 12.0 °F 78% 30.06 in 10.0 mi Calm Calm - N/A   Clear
7:53 AM 23.0 °F - 16.0 °F 74% 30.08 in 10.0 mi Calm Calm - N/A   Clear
8:53 AM 33.1 °F - 16.0 °F 50% 30.06 in 10.0 mi Calm Calm - N/A   Clear
9:53 AM 37.9 °F 34.4 °F 10.9 °F 33% 30.05 in 10.0 mi WNW 4.6 mph - N/A   Clear
10:53 AM 41.0 °F 39.0 °F 12.9 °F 32% 30.03 in 10.0 mi NW 3.5 mph - N/A   Clear
11:53 AM 43.0 °F 41.3 °F 10.9 °F 27% 30.02 in 10.0 mi Variable 3.5 mph - N/A   Partly Cloudy
12:53 PM 44.1 °F 41.5 °F 10.0 °F 25% 30.01 in 10.0 mi Variable 4.6 mph - N/A   Scattered Clouds
1:53 PM 46.0 °F 41.4 °F 8.1 °F 21% 30.00 in 10.0 mi NNE 9.2 mph - N/A   Clear
2:53 PM 46.9 °F - 10.9 °F 23% 29.99 in 10.0 mi North 6.9 mph - N/A   Clear
3:53 PM 48.0 °F - 9.0 °F 21% 29.99 in 10.0 mi Variable 3.5 mph - N/A   Clear
4:53 PM 46.9 °F - 9.0 °F 21% 30.00 in 10.0 mi Calm Calm - N/A   Clear
5:53 PM 46.9 °F - 8.1 °F 21% 30.01 in 10.0 mi NNW 5.8 mph - N/A   Clear
6:53 PM 46.0 °F - 7.0 °F 20% 30.02 in 10.0 mi Calm Calm - N/A   Clear
7:53 PM 26.1 °F 21.9 °F 17.1 °F 69% 30.07 in 10.0 mi SSW 3.5 mph - N/A   Clear
8:53 PM 26.1 °F 17.6 °F 18.0 °F 71% 30.05 in 10.0 mi South 8.1 mph - N/A   Clear
9:53 PM 27.0 °F - 18.0 °F 69% 30.06 in 10.0 mi Calm Calm - N/A   Clear
10:53 PM 26.1 °F 19.4 °F 17.1 °F 69% 30.05 in 10.0 mi East 5.8 mph - N/A   Clear
11:53 PM 28.9 °F 22.8 °F 16.0 °F 58% 30.04 in 10.0 mi South 5.8 mph - N/A   Clear